Regional Weather Roundup
Issued by NWS

Home | Current Version | Previous Version | Graphics & Text | Print | Product List | Glossary On
Versions: 1 2 3 4 5 6 7 8 9 10 11 12 13 14 15 16 17 18 19 20 21 22 23 24 25 26 27 28 29 30 31 32 33 34 35 36 37 38 39 40 41 42 43 44 45 46 47 48 49 50
000
ASUS43 KIND 191759
RWRIN

WEATHER ROUNDUP FOR INDIANA
NATIONAL WEATHER SERVICE INDIANAPOLIS IN
100 PM EST SUN FEB 19 2017

NOTE: "FAIR" INDICATES FEW OR NO CLOUDS BELOW 12,000 FEET WITH NO
SIGNIFICANT WEATHER AND/OR OBSTRUCTIONS TO VISIBILITY.

* - STATION DOES NOT REPORT WEATHER SUCH AS PRECIPITATION OR FOG.

+ - STATION NOT QUALITY CONTROLLED BY THE NATIONAL WEATHER SERVICE.
    USE DATA WITH CAUTION...ESPECIALLY DEWPOINT AND RELATIVE
    HUMIDITY OBSERVATIONS.

INZ001>003-010>013-019-020-191900-
NORTHWEST INDIANA

CITY           SKY/WX    TMP DP  RH WIND       PRES   REMARKS
GARY /AIRPORT/ MOSUNNY   61  28  29 CALM      30.08R
KNOX *+        SUNNY     55  21  26 SW6       30.07S
MONTICELLO +   SUNNY     54  45  70 S6        30.07F
6HR MIN TEMP:  43; 6HR MAX TEMP:  54;


$$

LMZ046-743>745-191900-
SOUTHERN LAKE MICHIGAN

STATION/POSITION TIME  TEMP    WIND        PRES    WAVE
                       AIR SEA DIR/SP/G            HT
                 (UTC) (F)     (DEG/KT/KT) (MB)    (FT)
BURNS HARBOR     1740   43     360/  3/  6 1019.0R
MICHIGAN CITY    1730   48     290/  7/  7   N/A

$$

INZ004-005-014>016-021>024-191900-
NORTH CENTRAL INDIANA

CITY           SKY/WX    TMP DP  RH WIND       PRES   REMARKS
GOSHEN         SUNNY     59  40  49 SW9       30.04F
6HR MIN TEMP:  35; 6HR MAX TEMP:  59;

PERU/GRISSOM   MOSUNNY   55  48  76 VRB3      30.07F
SOUTH BEND     SUNNY     61  32  33 N6        30.07S
6HR MIN TEMP:  29; 6HR MAX TEMP:  61;


$$

INZ006>009-017-018-025>027-191900-
NORTHEAST INDIANA

CITY           SKY/WX    TMP DP  RH WIND       PRES   REMARKS
ANGOLA *+      SUNNY     61  52  72 W9        30.04R
FORT WAYNE     SUNNY     56  45  66 SW8       30.06F
6HR MIN TEMP:  43; 6HR MAX TEMP:  56;

KENDALLVILLE + SUNNY     59  34  38 W6        30.05S

$$

INZ028-029-035-036-043>045-051>053-191900-
WEST CENTRAL INDIANA

CITY           SKY/WX    TMP DP  RH WIND       PRES   REMARKS
LAFAYETTE      SUNNY     57  48  72 W6        30.07F
6HR MIN TEMP:  46; 6HR MAX TEMP:  57;

TERRE HAUTE    MOSUNNY   58  47  66 VRB3      30.09F
6HR MIN TEMP:  50; 6HR MAX TEMP:  58;


$$

INZ030>032-037>040-046>048-054>057-064-065-191900-
CENTRAL INDIANA

CITY           SKY/WX    TMP DP  RH WIND       PRES   REMARKS
COLUMBUS       CLOUDY    50  48  93 S6        30.11F
GREENWOOD *+   MOSUNNY   55  48  77 SW5       30.10S
6HR MIN TEMP:  48; 6HR MAX TEMP:  55;

INDIANAPOLIS   MOSUNNY   56  46  69 VRB6      30.09S
6HR MIN TEMP:  48; 6HR MAX TEMP:  56;

-EAGLE CREEK   SUNNY     57  46  66 S5        30.08F
6HR MIN TEMP:  49; 6HR MAX TEMP:  57;

KOKOMO +       SUNNY     57  46  66 VRB6      30.08F
6HR MIN TEMP:  45; 6HR MAX TEMP:  57;

MT COMFORT *+  SUNNY     57  45  62 SW5       30.09S
SHELBYVILLE    CLOUDY    53  46  77 SW8       30.08F
6HR MIN TEMP:  48; 6HR MAX TEMP:  54;


$$

INZ033-034-041-042-049-050-058-059-191900-
EAST CENTRAL INDIANA

CITY           SKY/WX    TMP DP  RH WIND       PRES   REMARKS
MUNCIE         SUNNY     58  45  62 VRB3      30.07F
6HR MIN TEMP:  49; 6HR MAX TEMP:  58;


$$

INZ060-061-067>069-081>083-085>088-191900-
SOUTHWEST INDIANA

CITY           SKY/WX    TMP DP  RH WIND       PRES   REMARKS
EVANSVILLE     CLOUDY    54  49  83 S5        30.11F
6HR MIN TEMP:  50; 6HR MAX TEMP:  55;

HUNTINGBURG *+ CLOUDY    52  48  86 S3        30.11F
6HR MIN TEMP:  49; 6HR MAX TEMP:  52;


$$

INZ062-063-066-070>080-084-089>092-191900-
SOUTH CENTRAL AND SOUTHEAST INDIANA

CITY           SKY/WX    TMP DP  RH WIND       PRES   REMARKS
BLOOMINGTON    CLOUDY    51  46  83 SE5       30.10F HAZE
6HR MIN TEMP:  47; 6HR MAX TEMP:  51;

MADISON *+     CLOUDY    54  46  76 CALM      30.12F
SEYMOUR +      CLOUDY    55  46  71 CALM      30.10

$$





USA.gov is the U.S. government's official web portal to all federal, state and local government web resources and services.